Regional Weather Roundup
Issued by NWS

Home | Current Version | Previous Version | Text Only | Print | Product List | Glossary Off
Versions: 1 2 3 4 5 6 7 8 9 10 11 12 13 14 15 16 17 18 19 20 21 22 23 24 25 26 27 28 29 30 31 32 33 34 35 36 37 38 39 40 41 42 43 44 45 46 47 48 49 50

508
ASUS45 KPSR 272010
RWRAZ

ARIZONA HOURLY REGIONAL WEATHER ROUNDUP
NATIONAL WEATHER SERVICE PHOENIX AZ
100 PM MST SAT AUG 27 2016

NOTE: FAIR INDICATES FEW OR NO CLOUDS BELOW 12,000 FEET WITH NO
SIGNIFICANT WEATHER AND/OR OBSTRUCTIONS TO VISIBILITY.

AZZ001>003-036-272100-
NORTHWEST ARIZONA

CITY           SKY/WX    TMP DP  RH WIND       PRES   REMARKS
BULLHEAD CITY  PTSUNNY   84  55  37 N5        29.95F
KINGMAN        CLOUDY    70  56  61 E7        30.09F
$$

AZZ004>008-015-016-018-272100-
NORTH CENTRAL ARIZONA

CITY           SKY/WX    TMP DP  RH WIND       PRES   REMARKS
GRAND CANYON   CLOUDY    62  51  67 SW9       30.27F
PRESCOTT       MOSUNNY   69  52  54 CALM      30.18F
FLAGSTAFF      PTSUNNY   63  47  55 SW12      30.27F
PAYSON         MOSUNNY   72  55  56 VRB6      30.22F
PAGE           CLOUDY    67  52  58 VRB6      30.17F
$$

AZZ009>014-017-272100-
NORTHEAST ARIZONA

CITY           SKY/WX    TMP DP  RH WIND       PRES   REMARKS
WINSLOW        MOSUNNY   67  57  70 SE10      30.20F
SAINT JOHNS    LGT RAIN  58  55  90 NW9       30.27S
SHOW LOW       CLOUDY    55  50  82 CALM      30.31F
$$

AZZ023-272100-
GREATER PHOENIX AREA

CITY           SKY/WX    TMP DP  RH WIND       PRES   REMARKS
PHOENIX        MOSUNNY   93  54  26 VRB3      29.91F
BUCKEYE        SUNNY     93  45  18 E5        29.94S
GLENDALE       MOSUNNY   93  54  26 NW5       29.93F
LUKE AFB       SUNNY     92  51  24 NE8       29.92F
DEER VALLEY    SUNNY     92  52  25 N5        29.94F
SCOTTSDALE     SUNNY     92  48  22 CALM      29.96F
MESA-GATEWAY   MOSUNNY   91  48  22 NW8       29.95F
CHANDLER       SUNNY     91  50  24 CALM      29.94F
$$

AZZ027-028-272100-
SOUTHWEST MARICOPA COUNTY AND PINAL COUNTY

CITY           SKY/WX    TMP DP  RH WIND       PRES   REMARKS
CASA GRANDE    SUNNY     93  43  17 NW9       29.95F
GILA BEND      FAIR      96  41  15 SW9       29.88F
$$

AZZ503-504-507>509-272100-
SOUTHEAST ARIZONA

CITY           SKY/WX    TMP DP  RH WIND       PRES   REMARKS
TUCSON         SUNNY     92  36  14 VRB7G17   30.01F
DAVIS-MONTHAN  SUNNY     91  36  14 VRB5      30.00F
RYAN FIELD     SUNNY     93  37  14 SW16      30.00F
NOGALES        SUNNY     88  42  20 VRB7G18   30.09F
SIERRA VISTA   MOSUNNY   83  41  22 SW14G21   30.14F
DOUGLAS        MOSUNNY   86  50  28 SW12      30.09F
SAFFORD        SUNNY     88  51  28 W17G26    30.02F
$$

AZZ020-021-025-026-031-272100-
SOUTHWEST ARIZONA

CITY           SKY/WX    TMP DP  RH WIND       PRES   REMARKS
YUMA           SUNNY     97  55  24 MISG      29.84F
$$

CAZ031-033-041-043-047-048-061-272100-
SOUTHERN CALIFORNIA

CITY           SKY/WX    TMP DP  RH WIND       PRES   REMARKS
DOWNTOWN L.A.  SUNNY     77  58  51 CALM      29.97F
L.A. AIRPORT   MOSUNNY   74  56  53 W12       29.99F
SAN DIEGO      MOSUNNY   74  58  57 NW13      29.99F
BURBANK        SUNNY     74  57  55 SE7       29.98F
ONTARIO        MOSUNNY   75  55  49 S6        29.99F
RIVERSIDE      SUNNY     74  55  51 VRB3      29.99F
PALM SPRINGS   MOSUNNY   96  55  25 SE7       29.89F
EL CENTRO NAS  MOSUNNY   99  52  20 NE12      29.85F
IMPERIAL       MOSUNNY  100  57  23 N8G23     29.83F
BLYTHE         SUNNY     95  57  27 NE15G28   29.89F
NEEDLES        PTSUNNY   84  66  54 SW25G60   29.96
$$

NVZ020-UTZ003-272100-
SOUTHERN NEVADA-UTAH

CITY           SKY/WX    TMP DP  RH WIND       PRES   REMARKS
LAS VEGAS      MOSUNNY   84  49  29 NE7       30.00F
SALT LAKE CITY MOSUNNY   86  34  15 SW8       30.03F
$$

NMZ009-TXZ055-272100-
NEW MEXICO-WEST TEXAS

CITY           SKY/WX    TMP DP  RH WIND       PRES   REMARKS
ALBUQUERQUE    MOSUNNY   81  44  27 VRB5      30.13F
EL PASO        MOSUNNY   88  58  36 VRB3      30.04F
$$


........................KEY........................
SKY/WX - SKY CONDITION/WEATHER
TMP    - TEMPERATURE IN FAHRENHEIT
DP     - DEW POINT IN FAHRENHEIT
RH     - RELATIVE HUMIDITY IN PERCENT
WIND   - DIRECTION AND SPEED IN MILES PER HOUR (MPH)
VRB    - VARIABLE WIND DIRECTION
PRES   - MEAN SEA LEVEL PRESSURE IN INCHES OF MERCURY
         F - FALLING PRESSURE   R - RISING PRESSURE
         S - STEADY PRESSURE
VSB    - VISIBILITY IN MILES
HX     - HEAT INDEX IN FAHRENHEIT
WCI    - WIND CHILL INDEX IN FAHRENHEIT
TC     - TEMPERATURE IN CELSIUS WHICH IS ALSO KNOWN AS
         TEMPERATURE IN CENTIGRADE
AFB    - AIR FORCE BASE
         LUKE AFB IS LUKE AIR FORCE BASE
         DAVIS-MONTHAN IS DAVIS-MONTHAN AIR FORCE BASE
NAS    - NAVAL AIR STATION
         EL CENTRO NAS IS EL CENTRO NAVAL AIR STATION
N/A    - NOT AVAILABLE





USA.gov is the U.S. government's official web portal to all federal, state and local government web resources and services.